Regional Weather Roundup
Issued by NWS Cleveland, OH

Home | Current Version | Previous Version | Graphics & Text | Print | Product List | Glossary On
Versions: 1 2 3 4 5 6 7 8 9 10 11 12 13 14 15 16 17 18 19 20 21 22 23 24 25 26 27 28 29 30 31 32 33 34 35 36 37 38 39 40 41 42 43 44 45 46 47 48 49 50
000
ASUS41 KCLE 272012
RWRCLE
OHIO REGIONAL WEATHER ROUNDUP
NATIONAL WEATHER SERVICE WILMINGTON, OH
300 PM EST MON FEB 27 2017

NOTE: "FAIR" INDICATES FEW OR NO CLOUDS BELOW 12,000 FEET WITH NO
SIGNIFICANT WEATHER AND/OR OBSTRUCTIONS TO VISIBILITY.

OHZ001>008-015>018-024>027-034-035-043-044-272100-
   NORTHWEST OHIO

CITY           SKY/WX    TMP DP  RH WIND       PRES   REMARKS
DEFIANCE       PTSUNNY   48  34  58 S8        30.19S
FINDLAY        CLOUDY    51  28  41 SE14      30.19F
TOLEDO EXPRESS PTSUNNY   48  34  58 SW9G18    30.20R
TOLEDO EXEC    PTSUNNY   50  34  54 SW13      30.21F
LIMA           CLOUDY    48  36  63 S8        30.19F
$$

OHZ009>014-019>023-028>033-038-089-272100-
   NORTHEAST OHIO

CITY           SKY/WX    TMP DP  RH WIND       PRES   REMARKS
CLE-HOPKINS    CLOUDY    50  28  42 S12       30.26S
CLE-LAKEFRONT  CLOUDY    44  28  53 N5        30.24R
CUY CO. ARPT   PTSUNNY   50  32  50 W14       30.24S
LORAIN-ELYRIA  CLOUDY    48  30  49 S12       30.23F
ASHTABULA      CLOUDY    46  28  49 W12G21    30.25S
AKRON-CANTON   CLOUDY    45  31  58 S14       30.25F
WOOSTER        CLOUDY    44  32  62 S9        30.25S
MANSFIELD      CLOUDY    45  34  65 S14       30.22F
YOUNGSTOWN     CLOUDY    45  25  45 SW10      30.26S
$$

OHZ042-051>053-060>062-070>072-077>081-272100-
  SOUTHWEST OHIO

CITY           SKY/WX    TMP DP  RH WIND       PRES   REMARKS
CINC-COVINGTON CLOUDY    49  46  90 SE6       30.20F
CINC-LUNKEN    LGT RAIN  47  45  93 SE3       30.24S
HAMILTON       CLOUDY    47  44  90 CALM      30.22F
DAYTON         CLOUDY    46  38  73 S12       30.20F
WRIGHT-PAT AFB CLOUDY    46  42  84 SE9       30.21F
DAYTON GENERAL CLOUDY    44  42  93 S8        30.20F
WILMINGTON     CLOUDY    44  42  93 S9        30.22F
$$

OHZ036-037-039>041-045>050-054>059-063>069-073>076-082>088-272100-
  CENTRAL AND SOUTHEAST OHIO

CITY           SKY/WX    TMP DP  RH WIND       PRES   REMARKS
COLUMBUS       CLOUDY    47  39  74 S9        30.25F
OSU AIRPORT    CLOUDY    45  39  79 S12       30.23F
BOLTON FIELD   CLOUDY    45  39  81 S9        30.24F
RICKENBACK AFB CLOUDY    43  41  93 S6        30.24F
NEWARK         CLOUDY    45  38  76 S8        30.25F
MARION         CLOUDY    45  37  73 S17       30.23S
LANCASTER      CLOUDY    45  41  86 SE7       30.26F
ZANESVILLE     CLOUDY    42  39  89 SE6       30.27F
NEW PHILLY     CLOUDY    43  37  79 S7        30.29S
$$




USA.gov is the U.S. government's official web portal to all federal, state and local government web resources and services.